Vorticity
4 6 4 -3 5 5 -6 6 4 7 21 6 6 7 8 7 3 6 4 5 2 7 8 8 14 15 -0 10 2 -1 2 6 6 2 1 5 7 5 7 7 11 13 13 19
20 -0 9 12 8 5 -1 1 1 0 6 11 17 14 14 12 11 1 13 13 10 14 12 11 9 5 10 5 5 2 0 5 3 8 0 -1 5 5 5 8 10 11 14 17
6 15 15 15 11 8 7 6 7 8 -4 4 10 28 56 46 43 27 21 19 13 7 5 13 8 11 10 5 12 4 5 5 8 5 5 -1 4 6 5 8 9 13 13 9
12 12 27 17 5 9 4 7 9 4 9 3 2 3 -15 17 31 12 16 17 18 16 19 29 20 7 13 13 11 3 9 7 12 5 7 1 5 4 5 8 9 12 12 14
6 12 -1 2 18 10 10 6 18 14 11 10 20 6 29 1 19 -18 9 12 11 27 16 -2 28 18 4 9 13 10 6 12 15 7 8 2 0 5 5 9 9 9 12 13
7 16 18 6 7 31 18 13 7 11 10 21 26 -14 17 8 -5 13 -1 7 18 12 19 23 28 19 21 8 11 14 8 15 10 16 5 1 1 4 5 9 8 9 12 13
8 1 10 17 3 4 -2 5 8 8 7 2 15 21 -39 9 1 -0 7 8 12 16 25 8 24 24 30 13 10 9 13 12 7 9 7 4 3 4 5 8 7 9 12 17
-9 14 4 25 10 24 6 -2 -23 9 7 16 11 14 28 -1 4 7 6 3 1 5 14 19 24 24 26 14 14 12 24 11 20 6 8 4 1 4 6 8 6 8 13 19
13 -8 5 20 -12 3 12 11 13 2 7 8 7 13 9 10 10 1 5 1 13 20 23 10 27 24 22 13 12 15 24 24 8 8 11 3 1 4 7 6 5 6 14 19
33 -4 26 11 20 14 -8 16 8 9 11 8 20 11 6 4 10 10 2 9 -0 2 24 18 21 22 28 6 14 15 12 3 7 6 9 4 2 4 7 7 4 5 16 15
14 4 28 10 11 5 4 6 6 13 5 12 7 9 -1 -1 2 6 3 9 -1 7 2 29 25 25 14 4 15 10 8 6 15 13 6 4 2 4 7 8 5 5 11 16
-11 37 15 -2 29 21 12 15 4 0 21 9 5 6 -13 -3 0 9 8 6 13 6 20 23 38 21 5 5 6 11 4 7 -1 20 8 4 2 4 6 9 5 5 7 12
7 33 -4 6 3 6 6 7 17 18 -5 8 7 13 -19 2 8 12 13 7 6 15 24 16 31 26 10 5 5 5 6 13 10 30 7 4 2 5 7 9 5 5 5 7
-4 9 15 25 19 27 9 6 7 6 4 4 -4 -5 3 1 10 6 9 4 5 7 14 34 21 22 28 12 2 7 -6 2 38 17 6 3 0 5 9 7 7 5 5 5
-2 5 11 10 9 9 8 5 2 3 4 8 -19 5 12 17 6 9 22 10 6 8 8 46 17 18 29 31 19 15 15 36 19 12 7 2 4 7 12 7 9 7 6 5
-7 9 1 3 11 6 5 4 13 22 11 18 13 13 -13 7 23 15 13 23 10 2 12 24 45 15 22 28 36 26 31 17 9 5 3 7 12 16 16 15 9 9 8 8
9 3 14 8 4 10 11 15 15 13 13 10 8 6 7 23 26 26 -4 22 9 8 23 -24 25 45 31 35 20 17 10 14 12 14 11 4 7 -1 -0 -3 25 10 8 8
9 10 13 7 14 8 1 14 7 13 -1 9 10 11 6 9 23 38 37 17 12 15 12 22 -34 17 13 8 17 22 34 29 23 19 15 15 21 13 14 2 -16 9 16 13
6 8 7 11 14 19 -0 10 1 8 6 11 9 36 18 -3 -4 24 21 7 24 18 31 27 24 -21 17 12 30 6 5 -2 5 14 9 8 8 -5 18 13 10 8 6 5
12 4 22 7 12 12 3 -1 13 14 16 -13 4 3 3 -5 18 14 29 12 17 -7 5 14 7 15 18 8 6 4 21 30 13 46 7 25 22 18 14 9 19 12 11 10
8 8 11 8 12 7 8 -18 26 6 -11 5 11 8 9 13 5 13 8 13 15 19 -4 -5 -5 -8 -7 -2 -2 3 3 3 2 7 3 5 16 12 12 12 15 15 14 14
15 12 11 7 12 13 -4 9 42 10 14 12 9 6 3 8 12 17 12 4 7 11 8 -2 5 7 8 9 8 6 8 7 1 -0 3 11 9 6 5 4 6 7 7 7
-5 10 6 17 1 -3 2 22 6 15 10 9 14 11 8 9 5 11 8 5 6 16 3 -4 2 7 7 8 8 8 10 11 10 5 5 7 1 3 8 10 10 11 13 10
6 8 3 12 10 9 1 5 6 8 6 5 4 1 -2 3 4 9 2 7 10 6 18 8 -4 10 10 12 13 11 10 12 13 13 13 13 9 11 12 10 10 10 10 10
11 15 10 10 1 5 10 11 6 6 8 6 8 12 14 14 16 15 17 17 21 26 6 10 9 10 9 9 9 9 10 11 11 10 10 10 10 11 11 11 11 11 11 11
3 13 21 14 9 11 13 16 13 10 8 9 9 13 10 8 10 12 14 10 8 4 3 4 8 9 8 7 8 10 9 8 8 8 9 10 9 9 9 10 9 8 9 8
Height
3020 3025 3021 3030 3037 3042 3045 3045 3044 3046 3048 3048 3046 3045 3048 3049 3049 3049 3050 3051 3053 3055 3059 3063 3064 3067 3070 3073 3076 3078 3081 3083 3085 3086 3087 3088 3088 3088 3086 3085 3084 3082 3081 3081
3016 3011 3022 3029 3033 3036 3039 3040 3041 3043 3044 3042 3039 3036 3038 3039 3039 3040 3041 3042 3043 3046 3048 3051 3054 3057 3059 3064 3067 3069 3073 3076 3079 3082 3083 3083 3084 3084 3081 3081 3080 3078 3076 3076
3004 3012 3017 3023 3027 3030 3032 3034 3037 3039 3039 3036 3033 3027 3026 3029 3029 3030 3031 3031 3032 3034 3036 3039 3043 3047 3050 3053 3058 3062 3065 3068 3072 3076 3078 3079 3079 3080 3077 3076 3076 3074 3072 3072
3004 3008 3010 3016 3021 3025 3027 3031 3033 3034 3035 3033 3030 3023 3023 3025 3025 3025 3027 3025 3023 3023 3023 3025 3028 3033 3038 3043 3050 3052 3056 3059 3064 3068 3072 3074 3075 3075 3073 3072 3072 3070 3069 3069
2998 3001 3007 3012 3016 3021 3024 3024 3028 3030 3030 3029 3027 3028 3017 3021 3022 3022 3021 3017 3015 3014 3014 3014 3016 3022 3026 3034 3037 3042 3047 3050 3056 3062 3066 3069 3070 3070 3069 3068 3067 3065 3065 3064
2996 2999 3005 3008 3012 3015 3018 3021 3025 3027 3028 3023 3018 3021 3012 3018 3019 3017 3014 3013 3012 3011 3009 3008 3008 3011 3017 3023 3027 3034 3038 3042 3048 3055 3059 3063 3065 3065 3064 3064 3063 3062 3060 3060
2994 2997 2999 3003 3008 3012 3015 3019 3021 3025 3024 3012 3013 3016 3012 3014 3013 3011 3009 3008 3006 3004 3002 3001 3000 3002 3007 3013 3020 3026 3030 3035 3042 3048 3053 3057 3059 3060 3060 3060 3059 3058 3056 3055
2988 2996 2996 2999 3004 3007 3010 3014 3009 3006 3005 3003 3012 3008 3007 3010 3009 3007 3006 3003 2999 2997 2995 2994 2993 2994 2999 3005 3012 3018 3022 3028 3035 3041 3046 3051 3053 3054 3055 3056 3055 3055 3052 3050
2985 2991 2995 2998 3001 3006 3009 3010 3012 3012 3011 3010 3003 3005 3005 3006 3007 3005 3003 2997 2993 2990 2987 2987 2986 2988 2992 2999 3005 3009 3014 3021 3028 3034 3040 3045 3047 3049 3051 3051 3052 3051 3049 3047
2983 2989 2993 2995 2998 3002 3004 3007 3010 3010 3006 3004 2998 3000 3000 3004 3003 3001 2999 2993 2989 2986 2983 2981 2981 2984 2990 2995 2999 3004 3009 3016 3022 3028 3034 3039 3042 3044 3046 3047 3049 3049 3047 3046
2982 2985 2991 2994 2996 2998 3002 3003 3005 3006 3007 3002 2996 2996 3002 3002 3000 2998 2996 2992 2986 2983 2980 2978 2978 2981 2986 2991 2995 3000 3005 3010 3017 3022 3028 3033 3036 3038 3041 3043 3045 3046 3045 3044
2980 2981 2987 2991 2992 2996 2999 3001 3003 3002 3007 3007 3006 3002 2999 2999 2998 2996 2994 2989 2985 2980 2976 2974 2974 2976 2982 2986 2990 2996 3000 3007 3011 3016 3021 3027 3030 3032 3036 3038 3040 3042 3043 3042
2978 2982 2985 2992 2996 2996 2998 3000 3000 3002 3004 3005 3003 2998 3000 2999 2997 2994 2991 2986 2982 2978 2974 2971 2970 2972 2977 2981 2986 2990 2997 3000 3004 3009 3014 3020 3024 3027 3030 3033 3035 3038 3040 3040
2977 2980 2981 2981 2986 2991 2996 2999 3001 3002 3003 3003 3003 3001 3000 2999 2996 2992 2989 2984 2980 2976 2971 2969 2967 2968 2972 2976 2980 2985 2990 2994 2997 3001 3007 3012 3016 3020 3024 3027 3030 3033 3036 3037
2977 2982 2983 2985 2988 2992 2996 2998 2999 3000 3002 3004 3002 3001 3000 2997 2993 2989 2984 2981 2979 2976 2972 2966 2964 2964 2968 2971 2974 2980 2984 2989 2992 2998 3002 3005 3010 3015 3019 3022 3025 3028 3031 3033
2979 2986 2986 2988 2990 2993 2995 2997 2998 2999 3001 3001 3000 3000 2997 2990 2988 2985 2982 2980 2976 2975 2973 2968 2959 2961 2965 2967 2970 2974 2978 2981 2985 2989 2996 3000 3005 3009 3013 3017 3020 3023 3026 3028
2985 2987 2988 2990 2990 2992 2995 2997 2998 2999 3000 3000 2999 2997 2991 2988 2984 2983 2980 2979 2976 2974 2973 2966 2962 2959 2963 2967 2972 2975 2979 2982 2984 2989 2993 2996 2999 3002 3006 3013 3015 3017 3019 3022
2987 2988 2988 2990 2990 2991 2997 2997 2998 2999 2998 2996 2995 2993 2991 2987 2984 2982 2979 2978 2977 2976 2972 2971 2968 2962 2962 2963 2967 2969 2976 2980 2983 2986 2989 2992 2995 2998 3001 3005 3009 3013 3015 3016
2986 2988 2990 2990 2990 2995 2996 2996 2997 2997 2999 2996 2994 2991 2989 2988 2986 2983 2982 2979 2977 2975 2973 2972 2968 2966 2964 2962 2962 2967 2970 2970 2974 2979 2982 2987 2990 2992 2994 3000 3004 3007 3010 3012
2989 2989 2991 2991 2991 2992 2997 2996 2995 2995 2997 2994 2993 2991 2990 2987 2986 2984 2982 2981 2980 2977 2977 2975 2975 2973 2965 2967 2966 2967 2967 2967 2968 2971 2975 2980 2983 2985 2987 2993 2997 3001 3003 3006
2993 2992 2992 2992 2992 2995 2995 2995 2994 2995 3000 2992 2992 2990 2989 2987 2987 2985 2983 2983 2982 2980 2979 2978 2977 2977 2975 2972 2971 2969 2966 2972 2977 2973 2974 2979 2982 2987 2988 2990 2993 2996 2998 2999
2996 2995 2995 2994 2994 2995 2995 2996 2996 2997 2994 2993 2992 2991 2989 2987 2986 2985 2985 2984 2982 2981 2979 2979 2980 2979 2979 2978 2977 2975 2975 2976 2977 2976 2979 2983 2985 2983 2988 2989 2989 2990 2992 2993
2996 2996 2996 2997 2997 2995 2994 2995 2994 2994 2994 2993 2992 2991 2990 2989 2988 2987 2986 2985 2984 2983 2982 2981 2980 2981 2980 2979 2979 2978 2978 2978 2977 2978 2979 2981 2980 2981 2982 2985 2986 2986 2986 2986
2995 2995 2997 2997 2996 2995 2995 2995 2994 2994 2993 2992 2992 2991 2990 2989 2988 2987 2986 2985 2984 2983 2982 2982 2981 2980 2979 2978 2977 2977 2976 2976 2975 2975 2976 2976 2977 2979 2980 2981 2981 2982 2982 2982
2997 2996 2995 2996 2995 2994 2994 2993 2993 2992 2992 2991 2990 2989 2988 2987 2986 2985 2984 2982 2982 2981 2981 2981 2980 2979 2978 2976 2975 2975 2974 2974 2974 2973 2973 2974 2974 2975 2976 2976 2976 2976 2975 2976
2995 2994 2994 2994 2993 2993 2992 2992 2991 2991 2991 2990 2989 2987 2986 2986 2985 2984 2983 2981 2980 2980 2979 2979 2977 2975 2974 2974 2973 2972 2972 2971 2971 2970 2970 2971 2970 2971 2971 2970 2970 2969 2969 2969